This is the latest recevied weather packets stored in our database for station/object SP1BMW-13. If no packets are shown the sender has not sent any weather packets the latest 10 day(s).
| Time | Temp. | Humidity | Pressure | Rain* | Wind** | Luminosity | Snow |
|---|---|---|---|---|---|---|---|
| 1787986341 | 20.56° C | 69% | 1009.5 hPa | 0 mm | 0.89 m/s, 290° | 224 W/m² | - |
| 1787986280 | 20.56° C | 69% | 1009.5 hPa | 0 mm | 1.34 m/s, 261° | 222 W/m² | - |
| 1787986221 | 20.56° C | 69% | 1009.4 hPa | 0 mm | 1.34 m/s, 211° | 216 W/m² | - |
| 1787986160 | 20.56° C | 69% | 1009.2 hPa | 0 mm | 0.89 m/s, 273° | 212 W/m² | - |
| 1787986100 | 20.56° C | 69% | 1009.3 hPa | 0 mm | 0.89 m/s, 259° | 208 W/m² | - |
| 1787986040 | 20.56° C | 69% | 1009.2 hPa | 0 mm | 0.45 m/s, 27° | 206 W/m² | - |
| 1787985980 | 21.11° C | 69% | 1009.3 hPa | 0 mm | 0.89 m/s, 251° | 205 W/m² | - |
| 1787985920 | 21.11° C | 69% | 1009.1 hPa | 0 mm | 1.34 m/s, 275° | 205 W/m² | - |
| 1787985860 | 21.11° C | 70% | 1009.2 hPa | 0 mm | 0.45 m/s, 242° | 210 W/m² | - |
| 1787985800 | 21.11° C | 70% | 1009.3 hPa | 0 mm | 0.45 m/s, 320° | 176 W/m² | - |
| 1787985740 | 21.11° C | 69% | 1009.1 hPa | 0 mm | 0.89 m/s, 245° | 174 W/m² | - |
| 1787985680 | 21.11° C | 69% | 1009.2 hPa | 0 mm | 0.45 m/s, 286° | 206 W/m² | - |
| 1787985620 | 21.11° C | 69% | 1009.2 hPa | 0 mm | 0 m/s | 178 W/m² | - |
| 1787985560 | 20.56° C | 70% | 1009.1 hPa | 0 mm | 0.45 m/s, 327° | 190 W/m² | - |
| 1787985500 | 20.56° C | 70% | 1009.4 hPa | 0 mm | 0 m/s | 176 W/m² | - |
| 1787985440 | 20.56° C | 70% | 1009.3 hPa | 0 mm | 0.45 m/s, 18° | 182 W/m² | - |
| 1787985380 | 20.56° C | 70% | 1009.1 hPa | 0 mm | 0.45 m/s, 46° | 206 W/m² | - |
| 1787985320 | 20.56° C | 69% | 1009.2 hPa | 0 mm | 0.45 m/s, 339° | 230 W/m² | - |
| 1787985260 | 20.56° C | 70% | 1009.3 hPa | 0 mm | 0.89 m/s, 214° | 230 W/m² | - |
| 1787985200 | 20.56° C | 70% | 1009.2 hPa | 0 mm | 0.89 m/s, 281° | 229 W/m² | - |
| 1787985140 | 20.56° C | 72% | 1009.3 hPa | 0 mm | 0.45 m/s, 246° | 226 W/m² | - |
| 1787985081 | 20.56° C | 72% | 1009.3 hPa | 0 mm | 0.45 m/s, 67° | 223 W/m² | - |
| 1787985020 | 20.56° C | 71% | 1009.3 hPa | 0 mm | 0 m/s | 213 W/m² | - |
| 1787984961 | 20.56° C | 71% | 1009.2 hPa | 0 mm | 0.89 m/s, 153° | 206 W/m² | - |
| 1787984900 | 20.56° C | 71% | 1009.4 hPa | 0 mm | 0.45 m/s, 111° | 187 W/m² | - |
* Rain latest hour (hover to see other rain measurements)
** Current wind speed in m/s (hover to see current wind gust speed)